Tracking 28790 objects as of 19-Apr-2024
HD Live streaming from Space Station
objects crossing your sky now

COSMOS 1880

Track COSMOS 1880 now!
10-day predictions
COSMOS 1880 is classified as:


NORAD ID: 18339
Int'l Code: 1987-074F
Perigee: 1,400.1 km
Apogee: 1,414.8 km
Inclination: 82.6 °
Period: 113.8 minutes
Semi major axis: 7778 km
RCS: 1.0638 m2 (large)
Launch date: September 7, 1987
Source: Commonwealth of Independent States (former USSR) (CIS)
Launch site: PLESETSK MISSILE AND SPACE COMPLEX (PKMTR)
Your satellite tracking list
Your tracking list is empty




NASA's NSSDC Master Catalog

Two Line Element Set (TLE):
1 18339U 87074F   24109.86946411  .00000039  00000-0  15030-3 0  9999
2 18339  82.5635  50.5845 0009430 164.4060 250.4447 12.65502299691114
Source of the keplerian elements: AFSPC